Regional Weather Roundup
Issued by NWS

Home | Current Version | Previous Version | Graphics & Text | Print | Product List | Glossary On
Versions: 1 2 3 4 5 6 7 8 9 10 11 12 13 14 15 16 17 18 19 20 21 22 23 24 25 26 27 28 29 30 31 32 33 34 35 36 37 38 39 40 41 42 43 44 45 46 47 48 49 50
708
ASUS43 KDMX 192101
RWRIA

WEATHER ROUNDUP FOR IOWA
NATIONAL WEATHER SERVICE DES MOINES IA
300 PM CST MON FEB 19 2018

NOTE: "FAIR" INDICATES FEW OR NO CLOUDS BELOW 12,000 FEET WITH NO
SIGNIFICANT WEATHER AND/OR OBSTRUCTIONS TO VISIBILITY.

* - THESE STATIONS ARE NOT NWS STATIONS...THUS NOT UNDER NWS
QUALITY CONTROL.  THEY ALSO DO NOT REPORT WEATHER SUCH
AS PRECIPITATION OR FOG.

IAZ001>003-012>014-020>022-031>034-043>046-192200-
   NORTHWEST IOWA

CITY           SKY/WX    TMP DP  RH WIND       PRES   REMARKS
CARROLL *      CLOUDY    25  25 100 N22       29.76R WCI  10
DENISON *      SUNNY     23  23 100 N12G17    29.80R WCI  12
LE MARS *      MOSUNNY   19  18  93 MISG      29.83F FOG
ORANGE CITY *  CLOUDY    19  19 100 N9        29.82F FOG     WCI   9
SHELDON *      LGT SNOW  18  18 100 MISG      29.81R VSB 3/4
SIOUX CITY     CLOUDY    20  18  92 N17       29.84S WCI   5
SPENCER        LGT SNOW  20  18  92 N16       29.80R VSB 3/4 WCI   6
STORM LAKE *   SUNNY     19  19 100 MISG      29.78R FOG
$$

IAZ055>058-069>071-079>083-090>094-192200-
   SOUTHWEST IOWA

CITY           SKY/WX    TMP DP  RH WIND       PRES   REMARKS
ATLANTIC *     CLOUDY    27  27 100 N13       29.78R WCI  16
AUDUBON *      CLOUDY    27  23  86 NW5       29.77R WCI  21
CLARINDA *     CLOUDY    30  30 100 NW13      29.81R WCI  20
COUNCIL BLFS * CLOUDY    23  23 100 NW13      29.79S WCI  11
CRESTON *      CLOUDY    30  30 100 NW13      29.74S FOG     WCI  20
HARLAN  *      CLOUDY    25  25 100 NW14      29.82R WCI  13
LAMONI         CLOUDY    35  33  92 NW12      29.72S WCI  27
RED OAK *      CLOUDY    28  28 100 N12G17    29.79R WCI  18
SHENANDOAH *   CLOUDY    27  27 100 NW7G14    29.81R WCI  19
$$

IAZ047>049-059>061-072>074-084-192200-
   CENTRAL IOWA

CITY           SKY/WX    TMP DP  RH WIND       PRES   REMARKS
AMES           CLOUDY    34  33  96 NW12      29.71R FOG     WCI  25
ANKENY *       CLOUDY    34  34 100 NW10      29.72S FOG     WCI  26
BOONE *        CLOUDY    32  32 100 MISG      29.71R FOG
CHARITON *     CLOUDY    36  36 100 W12G17    29.71S FOG     WCI  27
DES MOINES     CLOUDY    34  33  96 NW12      29.72R FOG     WCI  25
GRINNELL*      FOG       41  41  97 W7        29.68R VSB 1/4
KNOXVILLE *    CLOUDY    37  37 100 NW16      29.69R FOG     WCI  28
MARSHALLTOWN   FOG       38  38 100 NW10      29.67R VSB 1/2 WCI  31
NEWTON *       FOG       37  37 100 W12       29.70R VSB 1/2 WCI  30
PELLA *        FOG       38  37  99 NW15      29.70R VSB 1/2 WCI  29
$$

IAZ004>006-015-016-023>025-035-036-192200-
   NORTH CENTRAL IOWA

CITY           SKY/WX    TMP DP  RH WIND       PRES   REMARKS
CLARION *      CLOUDY    32  32 100 N14       29.71R FOG     WCI  22
ESTHERVILLE    FOG       19  18  95 N23       29.77S VSB 1   WCI   2
FORT DODGE *   CLOUDY    28  26  92 N10       29.73S FOG     WCI  19
MASON CITY     FRZ RAIN  31  29  92 N14       29.72R FOG     WCI  21
FOREST CITY *  CLOUDY    30  30 100 N9        29.72R FOG     WCI  22
IOWA FALLS *   FOG       35  34  98 NW8       29.70R VSB 1/2 WCI  28
$$

IAZ007>011-017>019-026>030-037>042-050>054-066-192200-
   NORTHEAST IOWA

CITY           SKY/WX    TMP DP  RH WIND       PRES   REMARKS
CEDAR RAPIDS   LGT RAIN  47  47 100 NW8       29.66R VSB 1/2
CHARLES CITY * MIX PCPN  34  34 100 N8        29.69R WCI  27
CLINTON *      CLOUDY    53  52  96 MISG        N/A
DECORAH *      CLOUDY    37  36  93 NE7G14    29.67S FOG     WCI  32
DUBUQUE        FOG       37  36  96 NE6       29.67F VSB<1/4 WCI  32
MONTICELLO *   MIX PCPN  41  41 100 E5        29.65F VSB<1/4
OELWEIN *      CLOUDY    37  37 100 E14       29.66R FOG     WCI  29
WATERLOO       CLOUDY    37  37 100 CALM      29.67R FOG
$$

IAZ064-065-067-068-078-192200-
   EAST CENTRAL IOWA

CITY           SKY/WX    TMP DP  RH WIND       PRES   REMARKS
DAVENPORT      FAIR      62  56  80 S17       29.69F
IOWA CITY      CLOUDY    58  55  90 W5        29.66R FOG
MUSCATINE *    PTSUNNY   61  57  88 S14G21    29.65F
QUAD CITIES    CLOUDY    63  57  81 S14G23    29.67S
$$

IAZ062-063-075>077-085>089-095>099-192200-
   SOUTHEAST IOWA

CITY           SKY/WX    TMP DP  RH WIND       PRES   REMARKS
BURLINGTON     LGT RAIN  62  56  80 S15G26    29.70R
FAIRFIELD *    CLOUDY    54  52  94 W17       29.68R FOG
FORT MADISON * DRIZZLE   61  57  88 S14       29.71S
KEOKUK *       CLOUDY    63  57  82 S16G23    29.70R
OTTUMWA        LGT RAIN  47  45  93 W9        29.67R
WASHINGTON *   LGT RAIN  63  63 100 W23G32    29.67R
$$

ABBREVIATIONS USED IN REMARKS
   TC - TEMPERATURES IN CELSIUS
  WCI - WIND CHILL INDEX
   HX - HEAT INDEX
  VSB - VISIBILITY
$$





USA.gov is the U.S. government's official web portal to all federal, state and local government web resources and services.